TimeCDT,TemperatureF,Dew PointF,Humidity,Sea Level PressureIn,VisibilityMPH,Wind Direction,Wind SpeedMPH,Gust SpeedMPH,PrecipitationIn,Events,Conditions,WindDirDegrees,DateUTC
12:15 AM,73.4,59.0,61,29.72,10.0,SSE,16.1,25.3,N/A,,Clear,160,2013-09-28 05:15:00
12:35 AM,73.4,59.0,61,29.71,10.0,SSE,16.1,21.9,N/A,,Clear,160,2013-09-28 05:35:00
12:55 AM,71.6,57.2,60,29.70,10.0,SSE,12.7,21.9,N/A,,Clear,160,2013-09-28 05:55:00
1:15 AM,71.6,57.2,60,29.70,10.0,South,11.5,19.6,N/A,,Clear,170,2013-09-28 06:15:00
1:35 AM,71.6,57.2,60,29.69,10.0,SSE,12.7,18.4,N/A,,Clear,160,2013-09-28 06:35:00
1:55 AM,71.6,57.2,60,29.68,10.0,SSE,11.5,18.4,N/A,,Scattered Clouds,160,2013-09-28 06:55:00
2:15 AM,71.6,57.2,60,29.68,10.0,SSE,12.7,19.6,N/A,,Mostly Cloudy,160,2013-09-28 07:15:00
2:35 AM,71.6,57.2,60,29.72,10.0,SW,16.1,19.6,N/A,,Overcast,230,2013-09-28 07:35:00
2:55 AM,64.4,55.4,73,29.71,10.0,West,11.5,-,N/A,Rain,Light Rain,280,2013-09-28 07:55:00
3:15 AM,60.8,55.4,82,29.70,10.0,WNW,6.9,-,N/A,,Overcast,290,2013-09-28 08:15:00
3:35 AM,60.8,55.4,82,29.70,10.0,WNW,6.9,-,0.03,Rain,Light Rain,300,2013-09-28 08:35:00
3:55 AM,60.8,55.4,82,29.71,10.0,WNW,5.8,-,0.03,Rain,Rain,300,2013-09-28 08:55:00
4:15 AM,57.2,55.4,94,29.70,7.0,NW,4.6,-,0.02,Rain,Rain,310,2013-09-28 09:15:00
4:35 AM,57.2,55.4,94,29.70,10.0,NW,4.6,-,0.03,Rain,Light Rain,310,2013-09-28 09:35:00
4:55 AM,57.2,55.4,94,29.70,10.0,Calm,Calm,-,0.04,Rain,Light Rain,0,2013-09-28 09:55:00
5:15 AM,57.2,55.4,94,29.71,10.0,SSW,3.5,-,N/A,Rain,Rain,210,2013-09-28 10:15:00
5:35 AM,57.2,53.6,88,29.72,10.0,West,13.8,18.4,N/A,Rain,Light Rain,270,2013-09-28 10:35:00
5:55 AM,55.4,53.6,94,29.74,10.0,West,15.0,-,N/A,Rain,Rain,270,2013-09-28 10:55:00
6:15 AM,53.6,51.8,94,29.73,10.0,West,13.8,-,N/A,,Drizzle,280,2013-09-28 11:15:00
6:35 AM,53.6,50.0,88,29.71,10.0,NW,12.7,18.4,N/A,,Drizzle,310,2013-09-28 11:35:00
6:55 AM,53.6,50.0,88,29.74,10.0,West,6.9,-,0.01,Rain,Rain,280,2013-09-28 11:55:00
7:15 AM,53.6,50.0,88,29.75,10.0,WNW,13.8,19.6,N/A,,Overcast,290,2013-09-28 12:15:00
7:35 AM,55.4,50.0,82,29.77,10.0,WNW,15.0,21.9,N/A,,Overcast,290,2013-09-28 12:35:00
7:55 AM,53.6,50.0,88,29.78,7.0,WNW,17.3,24.2,N/A,,Overcast,290,2013-09-28 12:55:00
8:15 AM,53.6,50.0,88,29.78,2.5,WNW,16.1,23.0,N/A,,Heavy Drizzle,300,2013-09-28 13:15:00
8:35 AM,53.6,50.0,88,29.80,3.0,WNW,13.8,21.9,0.01,,Drizzle,290,2013-09-28 13:35:00
8:55 AM,53.6,48.2,82,29.81,7.0,WNW,15.0,25.3,0.01,Rain,Rain,290,2013-09-28 13:55:00
9:15 AM,51.8,48.2,88,29.82,4.0,WNW,16.1,23.0,N/A,Rain,Light Rain,290,2013-09-28 14:15:00
9:35 AM,51.8,48.2,88,29.84,4.0,WNW,19.6,27.6,0.01,,Overcast,290,2013-09-28 14:35:00
9:55 AM,51.8,48.2,88,29.84,7.0,WNW,19.6,25.3,0.01,,Overcast,290,2013-09-28 14:55:00
10:15 AM,51.8,48.2,88,29.86,10.0,WNW,18.4,27.6,N/A,,Overcast,300,2013-09-28 15:15:00
10:35 AM,53.6,48.2,82,29.86,10.0,WNW,18.4,23.0,N/A,,Overcast,300,2013-09-28 15:35:00
10:55 AM,55.4,46.4,72,29.87,10.0,WNW,18.4,23.0,N/A,,Mostly Cloudy,300,2013-09-28 15:55:00
11:15 AM,55.4,46.4,72,29.88,10.0,WNW,15.0,24.2,N/A,,Mostly Cloudy,300,2013-09-28 16:15:00
11:35 AM,53.6,46.4,77,29.89,10.0,WNW,17.3,24.2,N/A,,Overcast,300,2013-09-28 16:35:00
11:55 AM,53.6,44.6,72,29.90,10.0,WNW,13.8,21.9,N/A,,Overcast,300,2013-09-28 16:55:00
12:15 PM,53.6,44.6,72,29.90,10.0,WNW,17.3,-,N/A,,Overcast,300,2013-09-28 17:15:00
12:35 PM,55.4,46.4,72,29.91,10.0,WNW,18.4,23.0,N/A,,Overcast,300,2013-09-28 17:35:00
12:55 PM,57.2,46.4,67,29.91,10.0,WNW,19.6,24.2,N/A,,Overcast,300,2013-09-28 17:55:00
1:15 PM,60.8,44.6,55,29.91,10.0,WNW,18.4,26.5,N/A,,Overcast,290,2013-09-28 18:15:00
1:35 PM,60.8,44.6,55,29.91,10.0,West,19.6,26.5,N/A,,Scattered Clouds,270,2013-09-28 18:35:00
1:55 PM,60.8,42.8,52,29.92,10.0,WNW,19.6,26.5,N/A,,Scattered Clouds,290,2013-09-28 18:55:00
2:15 PM,60.8,44.6,55,29.92,10.0,WNW,15.0,23.0,N/A,,Mostly Cloudy,300,2013-09-28 19:15:00
2:35 PM,60.8,41.0,48,29.92,10.0,WNW,17.3,24.2,N/A,,Scattered Clouds,300,2013-09-28 19:35:00
2:55 PM,62.6,39.2,42,29.91,10.0,WNW,18.4,25.3,N/A,,Scattered Clouds,300,2013-09-28 19:55:00
3:15 PM,64.4,39.2,40,29.92,10.0,NW,12.7,24.2,N/A,,Scattered Clouds,310,2013-09-28 20:15:00
3:35 PM,64.4,39.2,40,29.92,10.0,WNW,17.3,23.0,N/A,,Scattered Clouds,290,2013-09-28 20:35:00
3:55 PM,64.4,37.4,37,29.93,10.0,WNW,17.3,20.7,N/A,,Clear,290,2013-09-28 20:55:00
4:15 PM,64.4,37.4,37,29.93,10.0,WNW,15.0,23.0,N/A,,Clear,300,2013-09-28 21:15:00
4:35 PM,64.4,35.6,34,29.93,10.0,WNW,16.1,21.9,N/A,,Clear,300,2013-09-28 21:35:00
4:55 PM,64.4,35.6,34,29.94,10.0,WNW,15.0,21.9,N/A,,Clear,290,2013-09-28 21:55:00
5:15 PM,64.4,35.6,34,29.94,10.0,WNW,12.7,19.6,N/A,,Clear,290,2013-09-28 22:15:00
5:35 PM,64.4,35.6,34,29.95,10.0,West,13.8,-,N/A,,Clear,280,2013-09-28 22:35:00
5:55 PM,64.4,35.6,34,29.96,10.0,West,11.5,-,N/A,,Clear,280,2013-09-28 22:55:00
6:15 PM,62.6,35.6,37,29.96,10.0,West,10.4,-,N/A,,Clear,280,2013-09-28 23:15:00
6:35 PM,62.6,35.6,37,29.97,10.0,West,9.2,-,N/A,,Clear,280,2013-09-28 23:35:00
6:55 PM,60.8,37.4,42,29.98,10.0,West,6.9,-,N/A,,Clear,280,2013-09-28 23:55:00
7:15 PM,55.4,39.2,54,29.99,10.0,West,5.8,-,N/A,,Clear,280,2013-09-29 00:15:00
7:35 PM,55.4,39.2,54,29.99,10.0,Calm,Calm,-,N/A,,Clear,0,2013-09-29 00:35:00
7:55 PM,55.4,37.4,51,29.99,10.0,Calm,Calm,-,N/A,,Clear,0,2013-09-29 00:55:00
8:15 PM,55.4,37.4,51,29.99,10.0,Calm,Calm,-,N/A,,Clear,0,2013-09-29 01:15:00
8:35 PM,55.4,39.2,54,30.00,10.0,Calm,Calm,-,N/A,,Clear,0,2013-09-29 01:35:00
8:55 PM,53.6,39.2,58,30.00,10.0,South,3.5,-,N/A,,Clear,180,2013-09-29 01:55:00
9:15 PM,51.8,39.2,62,30.00,10.0,Calm,Calm,-,N/A,,Clear,0,2013-09-29 02:15:00
9:35 PM,51.8,39.2,62,30.00,10.0,South,4.6,-,N/A,,Clear,180,2013-09-29 02:35:00
9:55 PM,50.0,39.2,66,30.00,10.0,South,4.6,-,N/A,,Clear,190,2013-09-29 02:55:00
10:15 PM,51.8,39.2,62,30.00,10.0,South,4.6,-,N/A,,Clear,180,2013-09-29 03:15:00
10:35 PM,51.8,39.2,62,30.01,10.0,South,4.6,-,N/A,,Clear,180,2013-09-29 03:35:00
10:55 PM,50.0,39.2,66,30.00,10.0,South,4.6,-,N/A,,Clear,190,2013-09-29 03:55:00
11:15 PM,48.2,41.0,76,30.01,10.0,South,4.6,-,N/A,,Clear,180,2013-09-29 04:15:00
11:35 PM,48.2,41.0,76,30.00,10.0,South,5.8,-,N/A,,Clear,180,2013-09-29 04:35:00
11:55 PM,48.2,41.0,76,30.00,10.0,South,3.5,-,N/A,,Clear,180,2013-09-29 04:55:00